����,�C�@��,���@�x,���@��,���@��,���@��,�ϐ�[,�ϐ�d��1,�ϐ�d��2,�ϐ�d��3,�J�@��,�~��o��,�~�ይ�x�i��j,�~�ይ�x�i���j,�~�ይ�x�i���j,���,�Z��~����1,�Z��~����2,�Z��~����3,�Z��~����4,�J�ᔻ��,�Z���T���x
����,��,��,kw/�u,��,m/s,cm,kg/�u,kg/�u,kg/�u,mm,1=�L_0=��,1=�L_0=��,1=�L_0=��,1=�L_0=��,p,p,p,p,p,��,��
2018-02-01 00:00:00,0.94,93.30,0.000,10.50,0.26,101.7,290.32,0.00,-286.05,0.0,0,0,0,0,0,174.00,22.00,0.00,164.00,0.15,-155.00
2018-02-01 00:10:00,0.94,92.90,0.000,348.80,0.28,101.4,289.98,0.00,-286.05,0.5,0,0,0,0,0,174.00,23.00,0.00,164.00,0.28,-155.20
2018-02-01 00:20:00,0.89,92.60,0.000,359.90,0.25,101.3,289.98,0.00,-284.36,0.0,0,0,0,0,1,191.00,23.00,22.00,142.00,0.19,-154.90
2018-02-01 00:30:00,0.93,92.30,0.000,9.59,0.18,101.1,289.98,0.00,-284.36,0.0,0,0,0,0,4,178.00,0.00,0.00,140.00,0.15,-155.10
2018-02-01 00:40:00,0.81,92.00,0.000,358.90,0.22,101.1,290.66,0.00,-285.04,0.5,0,0,0,0,28,173.00,23.00,23.00,141.00,0.11,-154.80
2018-02-01 00:50:00,0.77,91.90,0.000,354.80,0.29,101.3,290.32,0.00,-283.34,0.0,0,0,0,0,20,157.00,23.00,0.00,140.00,-0.01,-154.80
2018-02-01 01:00:00,0.73,92.00,0.000,0.43,0.28,100.9,289.98,0.00,-282.67,0.5,0,0,0,0,48,191.00,22.00,0.00,117.00,-0.09,-155.30
2018-02-01 01:10:00,0.69,92.00,0.000,0.46,0.30,100.8,289.98,0.00,-283.34,0.0,0,0,0,0,51,172.00,23.00,23.00,140.00,0.03,-155.00
2018-02-01 01:20:00,0.69,92.10,0.000,5.37,0.30,100.6,289.98,0.00,-282.67,0.5,0,0,0,0,70,153.00,23.00,0.00,117.00,-0.09,-155.40
2018-02-01 01:30:00,0.69,92.20,0.000,355.70,0.29,100.3,290.66,0.00,-281.99,0.0,0,0,0,0,56,174.00,23.00,22.00,117.00,-0.09,-155.40
2018-02-01 01:40:00,0.77,92.30,0.000,9.49,0.23,100.1,290.66,0.00,-280.97,0.0,0,0,0,0,95,174.00,0.00,0.00,93.00,-0.09,-155.30
2018-02-01 01:50:00,0.61,92.60,0.000,8.91,0.25,100.4,290.32,0.00,-283.00,0.5,0,0,0,0,99,174.00,23.00,0.00,117.00,-0.09,-155.30
2018-02-01 02:00:00,0.61,92.80,0.000,11.12,0.24,100.2,291.33,0.00,-283.68,0.0,0,0,0,0,212,152.00,23.00,23.00,93.00,-0.09,-155.40
2018-02-01 02:10:00,0.60,93.00,0.000,3.34,0.37,100.2,291.33,0.00,-283.34,0.0,0,0,0,0,171,174.00,23.00,0.00,94.00,-0.05,-155.80
2018-02-01 02:20:00,0.52,93.00,0.000,0.88,0.29,100.9,290.65,0.00,-284.70,0.5,0,0,0,0,126,173.00,22.00,22.00,116.00,-0.14,-155.60
2018-02-01 02:30:00,0.36,93.10,0.000,358.50,0.30,100.8,290.66,0.00,-284.70,0.0,0,0,0,0,69,152.00,23.00,0.00,93.00,-0.10,-155.60
2018-02-01 02:40:00,0.28,93.10,0.000,5.47,0.24,100.7,291.00,0.00,-284.36,0.0,0,0,0,0,63,173.00,0.00,0.00,70.00,-0.10,-155.60
2018-02-01 02:50:00,0.28,93.00,0.000,37.35,0.28,100.8,289.98,0.00,-282.33,0.5,0,0,0,0,45,152.00,23.00,23.00,94.00,-0.14,-155.50
2018-02-01 03:00:00,0.20,92.90,0.000,35.00,0.23,100.3,290.66,0.00,-281.31,0.0,0,0,0,0,15,174.00,23.00,0.00,93.00,-0.26,-155.60
2018-02-01 03:10:00,0.20,92.80,0.000,33.02,0.27,100.8,290.66,0.00,-284.02,0.0,0,0,0,0,0,152.00,23.00,0.00,69.00,-0.26,-155.50
2018-02-01 03:20:00,0.11,92.60,0.000,32.91,0.24,100.8,290.65,0.00,-288.76,0.0,0,0,0,0,0,152.00,0.00,22.00,94.00,-0.34,-155.60
2018-02-01 03:30:00,0.11,92.30,0.000,33.67,0.22,100.5,290.66,0.00,-291.47,0.5,0,0,0,0,0,152.00,23.00,0.00,69.00,-0.34,-155.80
2018-02-01 03:40:00,0.03,91.90,0.000,33.37,0.27,100.1,290.66,0.00,-287.07,0.0,0,0,0,0,0,152.00,23.00,23.00,93.00,-0.50,-155.60
2018-02-01 03:50:00,0.11,91.70,0.000,32.44,0.23,100.2,289.98,0.00,-288.08,0.0,0,0,0,0,0,130.00,23.00,0.00,69.00,-0.50,-155.80
2018-02-01 04:00:00,0.03,91.30,0.000,32.32,0.21,100.2,290.66,0.00,-288.42,0.0,0,0,0,0,0,152.00,0.00,0.00,70.00,-0.67,-155.80
2018-02-01 04:10:00,0.03,90.90,0.000,30.75,0.24,99.9,291.67,0.00,-288.76,0.5,0,0,0,0,0,130.00,22.00,22.00,70.00,-0.71,-155.80
2018-02-01 04:20:00,-0.05,90.40,0.000,30.42,0.23,99.6,289.98,0.00,-288.76,0.0,0,0,0,0,0,153.00,23.00,0.00,69.00,-0.83,-155.60
2018-02-01 04:30:00,-0.05,90.10,0.000,30.14,0.27,99.3,291.33,0.00,-289.78,0.0,0,0,0,0,0,130.00,0.00,0.00,46.00,-0.88,-155.70
2018-02-01 04:40:00,-0.13,90.20,0.000,30.83,0.28,99.2,290.65,0.00,-288.76,0.0,0,0,0,0,0,130.00,23.00,23.00,70.00,-0.95,-155.80
2018-02-01 04:50:00,-0.21,89.80,0.000,29.75,0.27,99.0,289.98,0.00,-290.79,0.0,0,0,0,0,0,133.00,23.00,0.00,46.00,-1.08,-155.90
2018-02-01 05:00:00,-0.21,89.60,0.000,31.66,0.26,98.7,289.98,0.00,-296.21,0.5,0,0,0,0,0,149.00,23.00,8.00,70.00,-1.16,-156.20
2018-02-01 05:10:00,-0.30,89.40,0.000,27.83,0.22,98.5,289.64,0.00,-292.82,0.0,0,0,0,0,0,130.00,22.00,14.00,46.00,-1.12,-156.30
2018-02-01 05:20:00,-0.38,89.40,0.000,29.72,0.19,98.7,289.98,0.00,-293.84,0.0,0,0,0,0,0,120.00,0.00,0.00,70.00,-1.24,-156.40
2018-02-01 05:30:00,-0.30,89.20,0.000,29.82,0.28,98.5,289.64,0.00,-295.19,0.0,0,0,0,0,0,119.00,23.00,23.00,46.00,-1.32,-156.30
2018-02-01 05:40:00,-0.46,89.00,0.000,30.43,0.19,98.4,289.98,0.00,-293.16,0.0,0,0,0,0,0,130.00,23.00,0.00,47.00,-1.28,-156.50
2018-02-01 05:50:00,-0.46,88.80,0.000,26.93,0.23,98.3,290.99,0.00,-294.18,0.0,0,0,0,0,0,131.00,23.00,0.00,45.00,-1.45,-156.60
2018-02-01 06:00:00,-0.46,88.70,0.000,27.08,0.26,98.3,289.64,0.00,-296.21,0.5,0,0,0,0,0,108.00,0.00,22.00,46.00,-1.65,-156.80
2018-02-01 06:10:00,-0.62,88.20,0.000,26.82,0.21,98.3,290.66,0.00,-297.22,0.0,0,0,0,0,0,130.00,22.00,0.00,47.00,-1.73,-156.90
2018-02-01 06:20:00,-1.04,87.60,0.000,28.94,0.16,98.3,290.32,0.00,-303.66,0.0,0,0,0,0,0,109.00,23.00,0.00,46.00,-2.27,-157.00
2018-02-01 06:30:00,-0.78,88.60,0.000,31.79,0.14,98.2,289.30,0.00,-306.03,0.0,0,0,0,0,0,108.00,0.00,23.00,46.00,-1.97,-157.10
2018-02-01 06:40:00,-1.11,87.30,0.000,26.16,0.24,97.9,288.29,0.00,-302.98,0.0,0,0,0,0,0,108.00,23.00,0.00,46.00,-2.34,-157.10
2018-02-01 06:50:00,-1.20,88.60,0.002,24.43,0.26,97.8,288.96,0.00,-305.69,0.0,0,0,0,0,0,130.00,0.00,0.00,23.00,-2.27,-157.40
2018-02-01 07:00:00,-0.95,88.20,0.005,25.59,0.20,97.6,288.63,0.00,-303.99,0.0,0,0,0,0,0,108.00,23.00,22.00,46.00,-2.19,-156.70
2018-02-01 07:10:00,-1.12,87.80,0.008,26.43,0.20,97.2,289.30,0.00,-303.99,0.0,0,0,0,0,0,109.00,23.00,0.00,46.00,-2.31,-157.60
2018-02-01 07:20:00,-1.08,87.90,0.013,24.52,0.16,97.2,288.63,0.00,-309.07,0.0,0,0,0,0,0,108.00,0.00,0.00,23.00,-2.43,-156.50
2018-02-01 07:30:00,-1.12,87.80,0.022,26.31,0.27,97.4,289.98,0.00,-305.01,0.0,0,0,0,0,0,87.00,23.00,23.00,46.00,-2.35,-156.80
2018-02-01 07:40:00,-1.12,88.20,0.027,24.24,0.24,96.8,288.63,0.00,-303.66,0.0,0,0,0,0,0,108.00,23.00,0.00,23.00,-2.23,-157.50
2018-02-01 07:50:00,-1.07,88.20,0.034,28.41,0.24,96.9,288.63,0.00,-308.40,0.0,0,0,0,0,0,108.00,0.00,0.00,46.00,-2.22,-157.60
2018-02-01 08:00:00,-1.20,88.00,0.040,27.75,0.27,96.6,289.98,0.00,-308.06,0.5,0,0,0,0,0,109.00,22.00,22.00,23.00,-1.90,-157.20
2018-02-01 08:10:00,-1.44,89.00,0.059,28.45,0.20,96.3,287.61,0.00,-307.72,0.0,0,0,0,0,0,86.00,23.00,0.00,23.00,-1.56,-157.50
2018-02-01 08:20:00,-1.27,89.70,0.056,30.86,0.18,96.0,287.27,0.00,-303.32,0.0,0,0,0,0,0,108.00,0.00,0.00,46.00,-1.07,-157.30
2018-02-01 08:30:00,-1.06,89.80,0.075,27.96,0.17,96.2,288.29,0.00,-298.92,0.0,0,0,0,0,0,87.00,23.00,23.00,23.00,-0.70,-157.50
2018-02-01 08:40:00,-0.82,89.70,0.099,28.98,0.24,96.2,287.95,0.00,-294.18,0.5,0,0,0,0,0,108.00,23.00,0.00,23.00,-0.29,-157.60
2018-02-01 08:50:00,-0.54,89.60,0.124,4.18,0.26,95.8,288.96,0.00,-288.08,0.0,0,0,0,0,0,86.00,0.00,0.00,46.00,-0.01,-157.20
2018-02-01 09:00:00,0.16,89.70,0.273,346.20,0.26,95.8,289.30,0.00,-284.02,0.5,0,0,0,0,0,87.00,23.00,0.00,23.00,0.24,-156.10
2018-02-01 09:10:00,-0.01,88.00,0.304,310.30,0.19,95.4,288.62,0.00,-279.62,0.0,0,0,0,0,0,86.00,0.00,23.00,23.00,1.14,-154.80
2018-02-01 09:20:00,0.32,87.90,0.311,210.90,0.22,95.2,288.62,0.00,-277.25,0.0,0,0,0,0,0,86.00,23.00,0.00,23.00,2.41,-154.50
2018-02-01 09:30:00,0.65,86.40,0.341,196.10,0.21,95.4,287.95,0.00,-270.14,0.0,0,0,0,0,0,87.00,0.00,0.00,22.00,1.84,-153.20
2018-02-01 09:40:00,0.94,85.50,0.326,172.10,0.23,94.9,288.29,0.00,-266.76,0.0,0,0,0,0,0,86.00,23.00,22.00,23.00,2.46,-153.30
2018-02-01 09:50:00,1.10,84.20,0.146,88.10,0.24,95.5,287.95,0.00,-261.68,0.0,0,0,0,0,0,86.00,23.00,0.00,23.00,2.21,-152.50
2018-02-01 10:00:00,1.02,82.50,0.198,29.15,0.19,95.3,288.28,0.00,-258.97,0.0,0,0,0,0,0,87.00,0.00,0.00,23.00,2.58,-152.70
2018-02-01 10:10:00,1.26,80.30,0.300,17.76,0.31,94.9,287.94,0.00,-255.92,0.0,0,0,0,0,0,86.00,23.00,0.00,23.00,2.37,-152.90
2018-02-01 10:20:00,1.18,78.37,0.303,2.16,0.36,95.1,287.94,0.00,-251.85,0.0,0,0,0,0,0,86.00,0.00,23.00,23.00,2.04,-151.50
2018-02-01 10:30:00,1.55,78.64,0.632,358.60,0.20,94.8,288.28,0.00,-250.50,0.0,0,0,0,0,0,87.00,22.00,0.00,23.00,5.54,-151.50
2018-02-01 10:40:00,1.68,76.57,0.429,2.34,0.23,94.9,287.60,0.00,-250.84,0.0,0,0,0,0,0,86.00,0.00,0.00,23.00,3.77,-151.30
2018-02-01 10:50:00,1.59,74.54,0.270,4.87,0.34,94.7,287.94,0.00,-253.55,0.0,0,0,0,0,0,65.00,23.00,22.00,23.00,2.74,-150.80
2018-02-01 11:00:00,1.72,73.80,0.217,21.75,0.27,94.9,287.94,0.00,-254.23,0.0,0,0,0,0,0,86.00,0.00,0.00,23.00,2.54,-150.20
2018-02-01 11:10:00,2.13,72.14,0.650,8.43,0.26,94.5,287.26,0.00,-252.53,0.0,0,0,0,0,0,86.00,23.00,0.00,23.00,2.91,-150.40
2018-02-01 11:20:00,2.75,70.78,0.638,11.49,0.31,94.5,287.60,0.00,-250.84,0.0,0,0,0,0,0,65.00,0.00,0.00,23.00,3.81,-150.50
2018-02-01 11:30:00,2.75,69.33,0.631,11.34,0.25,94.5,287.94,0.00,-248.47,0.0,0,0,0,0,0,87.00,23.00,23.00,23.00,3.52,-151.10
2018-02-01 11:40:00,2.99,68.04,0.637,3.10,0.27,94.2,287.26,0.00,-244.75,0.0,0,0,0,0,0,64.00,6.00,0.00,23.00,3.85,-152.00
2018-02-01 11:50:00,2.91,67.64,0.625,10.92,0.86,94.2,288.28,0.00,-239.33,0.5,0,0,0,0,0,87.00,16.00,0.00,0.00,4.92,-153.30
2018-02-01 12:00:00,2.97,66.49,0.643,8.33,0.69,93.8,287.94,0.00,-234.26,0.0,0,0,0,0,0,65.00,23.00,22.00,23.00,8.36,-154.90
2018-02-01 12:10:00,2.95,66.72,0.635,4.16,1.42,93.4,287.60,0.00,-229.52,0.0,0,0,0,0,0,86.00,0.00,0.00,22.00,7.85,-157.40
2018-02-01 12:20:00,3.35,67.94,0.631,5.28,0.93,93.5,287.60,0.00,-227.14,0.0,0,0,0,0,0,65.00,23.00,0.00,23.00,8.20,-159.20
2018-02-01 12:30:00,3.34,65.47,0.626,1.98,0.63,92.9,287.26,0.00,-227.82,0.0,0,0,0,0,0,108.00,0.00,0.00,0.00,9.76,-160.80
2018-02-01 12:40:00,3.18,64.93,0.618,10.84,1.00,92.9,288.28,0.00,-227.48,0.0,0,0,0,0,0,87.00,23.00,23.00,23.00,7.41,-158.90
2018-02-01 12:50:00,3.18,63.41,0.606,17.03,0.99,92.7,287.95,0.00,-224.78,0.0,0,0,0,0,0,108.00,0.00,0.00,23.00,4.86,-158.90
2018-02-01 13:00:00,3.44,63.88,0.598,2.95,1.04,92.7,287.27,0.00,-225.12,0.0,0,0,0,0,0,109.00,23.00,0.00,23.00,4.67,-159.00
2018-02-01 13:10:00,3.59,63.57,0.585,7.03,0.70,92.4,287.95,0.00,-223.76,0.0,0,0,0,0,0,130.00,23.00,0.00,23.00,4.90,-158.40
2018-02-01 13:20:00,3.51,64.01,0.567,12.21,0.95,92.0,287.95,0.00,-222.75,0.0,0,0,0,0,0,130.00,0.00,22.00,23.00,4.53,-157.90
2018-02-01 13:30:00,3.59,63.98,0.552,6.08,0.62,91.8,288.29,0.00,-224.10,0.0,0,0,0,0,0,131.00,23.00,0.00,23.00,5.14,-159.40
2018-02-01 13:40:00,4.00,63.54,0.532,7.20,0.45,91.7,288.62,0.00,-222.75,0.0,0,0,0,0,0,130.00,23.00,0.00,46.00,8.53,-158.30
2018-02-01 13:50:00,3.80,60.87,0.508,11.80,0.48,91.2,287.27,0.00,-222.07,0.0,0,0,0,0,0,131.00,23.00,23.00,24.00,9.10,-158.40
2018-02-01 14:00:00,3.62,60.29,0.488,2.86,0.79,90.8,287.27,0.00,-222.07,0.0,0,0,0,0,0,137.00,0.00,0.00,46.00,8.48,-157.90
2018-02-01 14:10:00,3.73,60.22,0.473,14.74,0.61,90.6,288.63,0.00,-223.09,0.0,0,0,0,0,0,146.00,22.00,0.00,46.00,7.56,-157.00
2018-02-01 14:20:00,3.65,60.60,0.435,3.77,1.20,90.8,287.27,0.00,-223.09,0.0,0,0,0,0,0,144.00,23.00,0.00,46.00,4.84,-156.60
2018-02-01 14:30:00,3.65,62.53,0.409,9.78,0.91,90.8,287.95,0.00,-224.44,0.0,0,0,0,0,0,139.00,0.00,23.00,55.00,4.80,-157.20
2018-02-01 14:40:00,3.73,62.29,0.396,359.10,0.68,90.2,287.95,0.00,-227.49,0.0,0,0,0,0,0,152.00,23.00,0.00,61.00,4.84,-157.70
2018-02-01 14:50:00,3.40,62.25,0.214,9.53,0.49,90.1,287.95,0.00,-229.18,0.0,0,0,0,0,0,131.00,23.00,0.00,46.00,3.85,-159.00
2018-02-01 15:00:00,3.40,63.95,0.335,8.43,0.26,88.9,287.61,0.00,-232.23,0.0,0,0,0,0,0,152.00,23.00,22.00,46.00,4.10,-160.40
2018-02-01 15:10:00,3.40,64.22,0.303,2.03,0.22,88.7,288.96,0.00,-236.97,0.0,0,0,0,0,0,152.00,0.00,0.00,70.00,4.14,-161.30
2018-02-01 15:20:00,3.41,65.10,0.269,10.27,0.45,88.7,288.63,0.00,-242.72,0.0,0,0,0,0,0,131.00,23.00,0.00,46.00,3.94,-162.10
2018-02-01 15:30:00,3.24,64.90,0.236,359.80,1.20,88.4,287.95,0.00,-246.45,0.0,0,0,0,0,0,152.00,23.00,0.00,47.00,3.73,-162.40
2018-02-01 15:40:00,3.08,65.00,0.202,358.30,1.10,88.1,287.27,0.00,-256.60,0.0,0,0,0,0,0,152.00,23.00,23.00,46.00,3.41,-162.80
2018-02-01 15:50:00,3.01,66.01,0.174,4.67,0.48,88.1,287.27,0.00,-259.99,0.0,0,0,0,0,0,131.00,0.00,0.00,46.00,3.13,-162.80
2018-02-01 16:00:00,2.84,66.15,0.140,1.85,1.80,87.6,287.95,0.00,-261.00,0.0,0,0,0,0,0,131.00,23.00,0.00,47.00,2.76,-162.90
2018-02-01 16:10:00,2.69,65.54,0.110,11.63,1.05,87.6,286.93,0.00,-268.79,0.0,0,0,0,0,0,152.00,23.00,0.00,23.00,2.52,-162.90
2018-02-01 16:20:00,2.60,65.03,0.083,4.94,1.02,87.1,287.95,0.00,-274.88,0.0,0,0,0,0,0,131.00,0.00,22.00,46.00,2.35,-162.60
2018-02-01 16:30:00,2.44,64.66,0.058,3.32,1.49,87.0,287.95,0.00,-282.33,0.0,0,0,0,0,0,131.00,23.00,0.00,46.00,2.19,-162.50
2018-02-01 16:40:00,2.36,64.42,0.035,6.80,1.49,87.1,287.27,0.00,-288.08,0.0,0,0,0,0,0,131.00,0.00,0.00,23.00,1.86,-161.50
2018-02-01 16:50:00,2.12,65.10,0.018,1.25,1.82,86.5,287.95,0.00,-299.59,0.0,0,0,0,0,0,113.00,23.00,23.00,46.00,1.50,-161.70
2018-02-01 17:00:00,1.80,65.78,0.008,13.38,1.62,86.2,287.95,0.00,-303.32,0.0,0,0,0,0,0,127.00,22.00,0.00,46.00,1.14,-162.50
2018-02-01 17:10:00,1.64,66.79,0.001,10.21,1.52,86.3,285.92,0.00,-311.44,0.0,0,0,0,0,0,130.00,0.00,0.00,23.00,0.74,-163.10
2018-02-01 17:20:00,1.50,67.94,0.000,358.90,0.57,86.2,286.59,0.00,-315.50,0.0,0,0,0,0,0,131.00,23.00,0.00,46.00,0.51,-162.70
2018-02-01 17:30:00,1.38,69.13,0.000,15.54,0.35,86.0,286.59,0.00,-319.91,0.0,0,0,0,0,0,109.00,0.00,22.00,23.00,0.11,-162.50
2018-02-01 17:40:00,1.18,70.51,0.000,4.46,0.13,85.9,286.26,0.00,-320.92,0.0,0,0,0,0,0,130.00,23.00,0.00,46.00,-0.22,-162.50
2018-02-01 17:50:00,0.94,71.43,0.000,1.16,0.20,85.4,286.26,0.00,-323.97,0.0,0,0,0,0,0,109.00,0.00,0.00,46.00,-0.46,-161.10
2018-02-01 18:00:00,0.65,73.46,0.002,2.29,0.19,85.5,287.95,0.00,-322.95,0.0,0,0,0,0,0,131.00,23.00,0.00,23.00,-0.55,-161.60
2018-02-01 18:10:00,0.52,74.44,0.000,14.60,0.35,85.4,287.95,0.00,-324.64,0.0,0,0,0,0,0,130.00,0.00,23.00,46.00,-0.79,-161.70
2018-02-01 18:20:00,0.36,75.73,0.000,26.98,0.16,85.3,287.95,0.00,-330.06,0.0,0,0,0,0,0,109.00,23.00,0.00,46.00,-1.20,-162.20
2018-02-01 18:30:00,0.36,76.78,0.000,2.65,0.16,85.1,287.95,0.00,-328.03,0.0,0,0,0,0,0,108.00,23.00,0.00,23.00,-1.45,-162.50
2018-02-01 18:40:00,0.24,78.94,0.000,21.94,0.14,85.0,287.95,0.00,-342.92,0.0,0,0,0,0,0,130.00,0.00,0.00,46.00,-1.49,-160.20
2018-02-01 18:50:00,0.28,80.90,0.000,358.70,0.18,85.2,286.59,0.00,-332.43,0.0,0,0,0,0,0,109.00,22.00,23.00,23.00,-1.66,-161.60
2018-02-01 19:00:00,0.60,81.70,0.000,343.40,0.20,85.0,288.63,0.00,-332.43,0.0,0,0,0,0,0,109.00,0.00,0.00,46.00,-1.41,-161.10
2018-02-01 19:10:00,0.36,82.30,0.000,316.80,0.23,84.6,288.63,0.00,-333.78,0.0,0,0,0,0,0,108.00,23.00,0.00,24.00,-1.78,-161.10
2018-02-01 19:20:00,0.20,83.00,0.000,316.90,0.14,84.6,285.92,0.00,-332.77,0.0,0,0,0,0,0,131.00,23.00,22.00,46.00,-1.65,-161.30
2018-02-01 19:30:00,-0.05,82.60,0.000,281.20,0.20,84.4,287.95,0.00,-333.78,0.0,0,0,0,0,0,109.00,0.00,0.00,47.00,-1.12,-161.30
2018-02-01 19:40:00,-0.46,81.40,0.000,222.80,0.17,84.6,286.59,0.00,-333.11,0.0,0,0,0,0,0,108.00,23.00,0.00,23.00,-1.69,-161.30
2018-02-01 19:50:00,-0.79,81.60,0.000,327.60,0.18,84.3,288.63,0.00,-348.00,0.0,0,0,0,0,0,109.00,23.00,0.00,23.00,-2.10,-162.40
2018-02-01 20:00:00,-0.83,81.80,0.000,348.80,0.11,84.3,289.30,0.00,-334.80,0.0,0,0,0,0,0,108.00,0.00,22.00,47.00,-2.35,-162.20
2018-02-01 20:10:00,-0.79,81.60,0.000,348.70,0.17,84.1,288.63,0.00,-335.14,0.0,0,0,0,0,0,88.00,23.00,0.00,23.00,-2.64,-162.40
2018-02-01 20:20:00,-0.71,81.30,0.002,218.80,0.20,84.0,286.59,0.00,-334.80,0.0,0,0,0,0,0,109.00,23.00,0.00,46.00,-2.10,-163.40
2018-02-01 20:30:00,-0.78,81.50,0.000,200.60,0.13,84.0,286.59,0.00,-335.48,0.0,0,0,0,0,0,109.00,0.00,0.00,24.00,-2.47,-164.10
2018-02-01 20:40:00,-0.78,82.40,0.000,201.80,0.16,84.0,287.95,0.00,-335.14,0.0,0,0,0,0,0,108.00,23.00,23.00,23.00,-2.34,-164.00
2018-02-01 20:50:00,-0.98,82.20,0.000,201.70,0.24,83.7,286.59,0.00,-334.12,0.0,0,0,0,0,0,87.00,0.00,0.00,47.00,-2.21,-164.80
2018-02-01 21:00:00,-0.77,82.50,0.000,201.80,0.14,83.9,286.59,0.00,-333.78,0.0,0,0,0,0,0,109.00,22.00,0.00,23.00,-2.37,-164.10
2018-02-01 21:10:00,-0.67,82.00,0.000,203.00,0.20,83.7,286.93,0.00,-333.45,0.0,0,0,0,0,0,108.00,23.00,0.00,23.00,-2.11,-163.90
2018-02-01 21:20:00,-0.84,83.20,0.001,202.50,0.21,83.4,287.95,0.00,-332.77,0.0,0,0,0,0,0,87.00,0.00,22.00,24.00,-2.03,-162.40
2018-02-01 21:30:00,-1.00,83.90,0.000,197.50,0.27,83.5,288.96,0.00,-348.00,0.0,0,0,0,0,0,87.00,23.00,0.00,23.00,-2.03,-162.30
2018-02-01 21:40:00,-0.93,84.60,0.001,193.30,0.14,83.6,287.61,0.00,-330.06,0.0,0,0,0,0,0,108.00,0.00,0.00,46.00,-1.96,-163.00
2018-02-01 21:50:00,-0.94,84.60,0.000,191.60,0.18,83.5,288.96,0.00,-335.82,0.0,0,0,0,0,0,87.00,23.00,0.00,24.00,-1.97,-162.40
2018-02-01 22:00:00,-1.02,84.70,0.001,193.90,0.25,83.3,287.27,0.00,-333.78,0.0,0,0,0,0,0,86.00,0.00,23.00,24.00,-1.97,-162.40
2018-02-01 22:10:00,-1.26,85.50,0.001,208.90,0.30,83.1,287.27,0.00,-334.12,0.0,0,0,0,0,0,87.00,23.00,0.00,23.00,-2.29,-162.30
2018-02-01 22:20:00,-1.10,85.90,0.000,198.70,0.19,83.0,286.59,0.00,-334.12,0.0,0,0,0,0,0,108.00,23.00,0.00,23.00,-2.13,-161.50
2018-02-01 22:30:00,-1.10,85.50,0.000,172.60,0.24,83.0,286.59,0.00,-333.78,0.0,0,0,0,0,0,87.00,0.00,0.00,23.00,-2.13,-162.60
2018-02-01 22:40:00,-1.08,85.60,0.000,172.50,0.24,83.0,287.27,0.00,-333.45,0.0,0,0,0,0,0,87.00,22.00,23.00,23.00,-1.99,-161.40
2018-02-01 22:50:00,-1.09,86.30,0.001,185.60,0.26,82.9,288.29,0.00,-332.43,0.0,0,0,0,0,0,65.00,0.00,0.00,23.00,-2.12,-161.60
2018-02-01 23:00:00,-1.09,87.00,0.000,181.90,0.25,83.0,287.27,0.00,-345.29,0.0,0,0,0,0,0,86.00,23.00,0.00,24.00,-2.00,-161.10
2018-02-01 23:10:00,-0.94,87.20,0.000,183.80,0.22,82.6,289.30,0.00,-336.15,0.0,0,0,0,0,0,87.00,0.00,0.00,23.00,-1.97,-161.20
2018-02-01 23:20:00,-1.03,87.70,0.000,183.70,0.20,82.6,286.59,0.00,-333.78,0.0,0,0,0,0,0,87.00,23.00,22.00,24.00,-1.89,-161.40
2018-02-01 23:30:00,-1.11,87.60,0.000,182.70,0.24,82.6,288.96,0.00,-333.78,0.0,0,0,0,0,0,86.00,22.00,0.00,23.00,-2.22,-161.10
2018-02-01 23:40:00,-1.18,87.60,0.000,183.10,0.23,82.5,286.59,0.00,-332.43,0.0,0,0,0,0,0,65.00,0.00,0.00,23.00,-1.97,-160.80
2018-02-01 23:50:00,-1.11,87.60,0.000,183.30,0.27,82.5,286.26,0.00,-330.40,0.0,0,0,0,0,0,87.00,23.00,16.00,23.00,-2.22,-160.60
2018-02-02 00:00:00,-1.11,87.40,0.000,183.10,0.26,82.1,289.30,0.00,-329.38,0.0,0,0,0,0,0,86.00,0.00,7.00,1.00,-2.06,-160.90
2018-02-02 00:10:00,-0.99,87.20,0.000,182.70,0.26,82.2,289.98,0.00,-331.41,0.0,0,0,0,0,0,65.00,23.00,0.00,24.00,-1.94,-160.10
2018-02-02 00:20:00,-1.08,87.10,0.000,183.20,0.22,82.4,287.27,0.00,-329.72,0.0,0,0,0,0,0,87.00,0.00,0.00,23.00,-2.27,-160.90
2018-02-02 00:30:00,-1.16,87.10,0.001,182.30,0.23,82.1,286.59,0.00,-342.92,0.0,0,0,0,0,0,65.00,23.00,22.00,24.00,-2.23,-160.40
2018-02-02 00:40:00,-1.07,87.70,0.001,182.40,0.19,82.4,286.59,0.00,-333.78,0.0,0,0,0,0,0,64.00,0.00,0.00,23.00,-2.30,-161.20
2018-02-02 00:50:00,-1.07,88.00,0.000,211.50,0.20,82.4,288.63,0.00,-331.41,0.0,0,0,0,0,0,87.00,23.00,0.00,24.00,-2.30,-160.40
2018-02-02 01:00:00,-1.27,88.20,0.000,191.80,0.23,82.2,285.92,0.00,-332.43,0.0,0,0,0,0,0,64.00,0.00,0.00,0.00,-2.30,-161.00
2018-02-02 01:10:00,-1.18,88.60,0.000,317.00,0.23,81.8,288.63,0.00,-330.74,0.0,0,0,0,0,0,87.00,23.00,23.00,23.00,-2.25,-160.50
2018-02-02 01:20:00,-1.53,88.10,0.000,311.40,0.20,82.5,288.63,0.00,-323.97,0.0,0,0,0,0,0,65.00,23.00,0.00,24.00,-2.93,-160.80
2018-02-02 01:30:00,-1.86,88.80,0.000,314.60,0.24,82.4,288.63,0.00,-324.98,0.0,0,0,0,0,0,65.00,0.00,0.00,23.00,-3.13,-160.00
2018-02-02 01:40:00,-1.74,89.40,0.000,317.20,0.30,82.0,288.63,0.00,-328.71,0.0,0,0,0,0,0,65.00,23.00,0.00,0.00,-3.25,-161.30
2018-02-02 01:50:00,-1.70,89.50,0.000,317.10,0.19,81.7,288.63,0.00,-329.72,0.0,0,0,0,0,0,86.00,0.00,22.00,23.00,-3.10,-160.10
2018-02-02 02:00:00,-1.49,89.90,0.002,317.30,0.22,81.8,286.59,0.00,-332.09,0.0,0,0,0,0,0,65.00,23.00,0.00,24.00,-2.77,-160.50
2018-02-02 02:10:00,-1.57,89.60,0.000,317.70,0.17,82.1,288.63,0.00,-335.82,0.0,0,0,0,0,0,65.00,0.00,0.00,23.00,-2.76,-160.40
2018-02-02 02:20:00,-1.74,89.80,0.000,318.30,0.17,81.8,287.95,0.00,-332.09,0.0,0,0,0,0,0,65.00,22.00,0.00,0.00,-2.93,-160.50
2018-02-02 02:30:00,-1.70,89.90,0.000,318.40,0.17,81.7,287.95,0.00,-331.41,0.0,0,0,0,0,0,65.00,0.00,23.00,24.00,-3.01,-160.30
2018-02-02 02:40:00,-1.86,90.00,0.000,318.60,0.22,81.5,288.63,0.00,-332.77,0.0,0,0,0,0,0,65.00,23.00,0.00,23.00,-2.97,-160.40
2018-02-02 02:50:00,-1.89,90.10,0.000,318.40,0.20,81.6,289.30,0.00,-333.11,0.0,0,0,0,0,0,65.00,0.00,0.00,0.00,-3.41,-159.80
2018-02-02 03:00:00,-1.98,90.20,0.000,335.90,0.24,81.6,285.92,0.00,-331.75,0.0,0,0,0,0,0,64.00,23.00,0.00,23.00,-3.33,-163.10
2018-02-02 03:10:00,-1.97,90.50,0.001,343.20,0.23,81.8,286.26,0.00,-331.41,0.0,0,0,0,0,0,65.00,0.00,22.00,24.00,-3.20,-162.20
2018-02-02 03:20:00,-2.22,90.30,0.000,330.20,0.16,81.4,286.26,0.00,-330.74,0.0,0,0,0,0,0,65.00,23.00,0.00,0.00,-3.49,-160.70
2018-02-02 03:30:00,-2.39,90.60,0.000,330.40,0.20,81.7,286.59,0.00,-333.45,0.0,0,0,0,0,0,64.00,0.00,0.00,23.00,-3.74,-160.30
2018-02-02 03:40:00,-2.55,90.90,0.000,330.10,0.14,81.5,286.26,0.00,-335.14,0.0,0,0,0,0,0,43.00,23.00,0.00,23.00,-3.74,-162.20
2018-02-02 03:50:00,-2.45,90.90,0.000,330.20,0.16,81.2,286.59,0.00,-333.11,0.0,0,0,0,0,0,65.00,0.00,23.00,0.00,-3.81,-160.60
2018-02-02 04:00:00,-2.82,91.10,0.000,330.50,0.19,81.2,286.59,0.00,-334.46,0.0,0,0,0,0,0,64.00,23.00,0.00,23.00,-4.06,-161.80
2018-02-02 04:10:00,-2.61,91.30,0.000,332.10,0.21,81.2,287.95,0.00,-333.78,0.0,0,0,0,0,0,64.00,0.00,0.00,24.00,-3.92,-161.90
2018-02-02 04:20:00,-2.81,91.30,0.001,332.20,0.19,81.3,286.59,0.00,-332.77,0.0,0,0,0,0,0,43.00,0.00,0.00,0.00,-4.04,-163.60
2018-02-02 04:30:00,-3.13,91.00,0.000,333.10,0.15,81.2,288.63,0.00,-333.78,0.0,0,0,0,0,0,65.00,23.00,22.00,23.00,-4.28,-164.30
2018-02-02 04:40:00,-3.13,91.80,0.000,333.90,0.23,81.4,288.63,0.00,-335.14,0.0,0,0,0,0,0,42.00,0.00,0.00,0.00,-4.44,-159.70
2018-02-02 04:50:00,-3.17,91.70,0.000,333.50,0.21,81.2,288.96,0.00,-335.82,0.0,0,0,0,0,0,65.00,23.00,0.00,23.00,-4.48,-162.50
2018-02-02 05:00:00,-3.17,92.30,0.001,333.30,0.20,81.0,288.63,0.00,-347.66,0.0,0,0,0,0,0,64.00,0.00,23.00,23.00,-4.36,-162.90
2018-02-02 05:10:00,-3.30,92.50,0.000,323.10,0.22,80.8,286.59,0.00,-346.99,0.0,0,0,0,0,0,43.00,22.00,0.00,0.00,-4.24,-140.20
2018-02-02 05:20:00,-3.54,92.40,0.000,342.90,0.17,80.7,289.30,0.00,-337.17,0.0,0,0,0,0,0,65.00,0.00,0.00,23.00,-4.61,-158.20
2018-02-02 05:30:00,-3.75,92.50,0.000,28.46,0.18,81.0,287.95,0.00,-335.82,0.0,0,0,0,0,0,43.00,23.00,0.00,0.00,-4.85,-162.30
2018-02-02 05:40:00,-3.62,93.20,0.003,28.85,0.18,81.2,288.29,0.00,-335.82,0.0,0,0,0,0,0,64.00,0.00,23.00,24.00,-4.48,-162.10
2018-02-02 05:50:00,-3.78,93.20,0.000,193.10,0.21,80.8,285.24,0.00,-333.45,0.0,0,0,0,0,0,43.00,23.00,0.00,0.00,-4.52,-162.20
2018-02-02 06:00:00,-3.91,93.20,0.000,181.20,0.24,81.0,285.92,0.00,-334.12,0.0,0,0,0,0,0,43.00,0.00,0.00,23.00,-4.77,-161.60
2018-02-02 06:10:00,-4.57,92.90,0.000,173.50,0.21,81.1,288.63,0.00,-334.12,0.0,0,0,0,0,0,64.00,7.00,0.00,23.00,-5.47,-163.60
2018-02-02 06:20:00,-4.32,93.50,0.000,177.50,0.30,80.9,286.59,0.00,-333.45,0.0,0,0,0,0,0,43.00,16.00,22.00,0.00,-5.51,-164.00
2018-02-02 06:30:00,-4.32,93.40,0.000,159.50,0.20,80.7,286.26,0.00,-335.48,0.0,0,0,0,0,0,43.00,0.00,0.00,24.00,-5.55,-161.60
2018-02-02 06:40:00,-4.16,93.20,0.004,178.20,0.17,80.8,285.92,0.00,-336.83,0.0,0,0,0,0,0,65.00,23.00,0.00,0.00,-5.14,-163.60
2018-02-02 06:50:00,-4.44,93.30,0.005,215.00,0.22,80.9,289.30,0.00,-336.83,0.0,0,0,0,0,0,43.00,0.00,0.00,23.00,-5.10,-163.70
2018-02-02 07:00:00,-4.24,93.50,0.010,224.30,0.24,80.7,287.95,0.00,-337.51,0.0,0,0,0,0,0,43.00,23.00,23.00,0.00,-4.98,-165.40
2018-02-02 07:10:00,-4.03,93.70,0.016,217.10,0.17,80.3,286.59,0.00,-335.48,0.0,0,0,0,0,0,64.00,0.00,0.00,24.00,-4.65,-165.70
2018-02-02 07:20:00,-3.91,93.70,0.022,217.00,0.24,80.4,285.92,0.00,-334.12,0.0,0,0,0,0,0,43.00,23.00,0.00,0.00,-4.81,-164.90